This demonstration page uses our WeatherBlox Daily Observations layout. Learn more.

Left ArrowRight Arrow

36.17497, -115.13722

Hourly Observations for August 8, 2022

Temp ( °F °C ) Dew Point ( °F °C ) Humidity (%) Winds ( mph kmh ) Pressure ( in mb ) Visibility ( mi km ) Precip ( " mm )
12:53 am 00:53 Clear 91 32.8 51 10.6 26 26 ENE 7 11 29.88 1012 10 16 0.00 0.00
1:53 am 01:53 Clear 91 32.8 50 10 25 25 N 3 6 29.88 1012 10 16 0.00 0.00
2:53 am 02:53 Clear 88 31.1 50 10 27 27 NW 5 7 29.88 1012 10 16 0.00 0.00
3:53 am 03:53 Clear 87 30.6 53 11.7 31 31 NNW 5 7 29.89 1012 10 16 0.00 0.00
4:53 am 04:53 Clear 86 30 53 11.7 32 32 NNW 8 13 29.90 1013 10 16 0.00 0.00
5:53 am 05:53 Clear 86 30 53 11.7 32 32 NNW 7 11 29.91 1013 10 16 0.00 0.00
6:53 am 06:53 Sunny 87 30.6 53 11.7 31 31 NNW 8 13 29.93 1014 10 16 0.00 0.00
7:53 am 07:53 Sunny 89 31.7 55 12.8 31 31 NNW 7 11 29.94 1014 10 16 0.00 0.00
8:53 am 08:53 Sunny 93 33.9 57 13.9 30 30 E 7 11 29.95 1014 10 16 0.00 0.00
9:53 am 09:53 Sunny 94 34.4 57 13.9 29 29 E 7 11 29.95 1014 10 16 0.00 0.00
10:53 am 10:53 Sunny 96 35.6 56 13.3 26 26 SE 6 9 29.94 1014 10 16 0.00 0.00
11:53 am 11:53 Sunny 99 37.2 56 13.3 24 24 VRB 6 9 29.92 1013 10 16 0.00 0.00
12:53 pm 12:53 Sunny 102 38.9 56 13.3 22 22 E 3 6 29.89 1012 10 16 0.00 0.00
1:53 pm 13:53 Sunny 103 39.4 56 13.3 21 21 VRB 5 7 29.87 1011 10 16 0.00 0.00
2:53 pm 14:53 Sunny 102 38.9 54 12.2 20 20 Calm 29.85 1011 10 16 0.00 0.00
3:53 pm 15:53 Sunny 103 39.4 56 13.3 21 21 S 9 15 29.82 1010 10 16 0.00 0.00
4:53 pm 16:53 Sunny 102 38.9 54 12.2 20 20 SSW 7 11 29.81 1010 10 16 0.00 0.00
5:53 pm 17:53 Sunny 103 39.4 55 12.8 21 21 S 12 19 29.81 1009 10 16 0.00 0.00
6:53 pm 18:53 Sunny 102 38.9 55 12.8 21 21 SSW 13 20 29.81 1009 10 16 0.00 0.00
7:53 pm 19:53 Clear 100 37.8 56 13.3 23 23 S 9 15 29.83 1010 10 16 0.00 0.00
8:53 pm 20:53 Clear 99 37.2 56 13.3 24 24 SE 8 13 29.85 1011 10 16 0.00 0.00
9:53 pm 21:53 Clear 97 36.1 59 15 29 29 SE 18 30 29.87 1012 10 16 0.00 0.00
10:53 pm 22:53 Clear 95 35 60 15.6 32 32 ESE 10 17 29.88 1012 10 16 0.00 0.00
11:53 pm 23:53 Mostly Cloudy 94 34.4 60 15.6 33 33 ESE 7 11 29.89 1012 10 16 0.00 0.00

Powered by AerisWeather